Weather History for Fallon NAS, NV

Change the Weather History Date:

Tuesday, August 12, 2014

  Actual Average Record
Temperature  
Mean Temperature 78 °F -  
Max Temperature 93 °F 90 °F 105 °F (1960)
Min Temperature 64 °F 53 °F 40 °F (1985)
Cooling Degree Days 14    
Growing Degree Days 28 (Base 50)    
Moisture  
Dew Point 47 °F    
Average Humidity 39    
Maximum Humidity 73    
Minimum Humidity 16    
Precipitation  
Precipitation 0.00 in - - ()
Sea Level Pressure  
Sea Level Pressure 29.95 in    
Wind  
Wind Speed 6 mph (SW)    
Max Wind Speed 16 mph    
Max Gust Speed 30 mph    
Visibility 10 miles    
Events      
Averages and records for this station are not official NWS values.
T = Trace of Precipitation, MM = Missing Value Source: NWS Daily Summary

Daily Weather History Graph

Daily Weather History Graph

Search for Another Location

Airport:

Trip Planner

Search our weather history database for the weather conditions in past years. The results will help you decide how hot, cold, wet, or windy it might be!

Date:

Astronomy

Aug. 12, 2014 Rise Set
Actual Time 6:04 AM PDT 7:54 PM PDT
Civil Twilight 5:35 AM PDT 8:23 PM PDT
Nautical Twilight 5:00 AM PDT 8:58 PM PDT
Astronomical Twilight 4:22 AM PDT 9:35 PM PDT
Moon 9:05 PM PDT (8/12) 8:26 AM PDT (8/12)
Length of Visible Light 14h 47m
Length of Day
13h 49m
Waning Gibbous, 94% of the Moon is Illuminated
Aug 12
Waning Gibbous
Aug 17
Last Quarter
Aug 25
New
Sep 2
First Quarter
Sep 8
Full

Hourly Weather History & Observations

Time (PDT) Temp. Dew Point Humidity Pressure Visibility Wind Dir Wind Speed Gust Speed Precip Events Conditions
12:56 AM 66.0 °F 48.0 °F 52% 30.02 in 10.0 mi SE 4.6 mph - N/A   Clear
1:56 AM 66.9 °F 48.9 °F 52% 30.01 in 10.0 mi South 4.6 mph - N/A   Clear
2:56 AM 69.1 °F 52.0 °F 54% 30.01 in 10.0 mi South 5.8 mph - 0.00 in   Overcast
3:56 AM 64.9 °F 55.9 °F 73% 30.00 in 10.0 mi ESE 3.5 mph - 0.00 in   Mostly Cloudy
4:56 AM 64.0 °F 54.0 °F 70% 29.99 in 10.0 mi SSE 6.9 mph - N/A   Mostly Cloudy
5:56 AM 66.0 °F 54.0 °F 65% 29.99 in 10.0 mi SW 5.8 mph - N/A   Mostly Cloudy
6:18 AM 64.0 °F 54.0 °F 70% 30.08 in 10.0 mi Variable 3.5 mph - N/A   Mostly Cloudy
6:56 AM 64.9 °F 53.1 °F 65% 29.99 in 10.0 mi SE 4.6 mph - N/A   Mostly Cloudy
7:56 AM 72.0 °F 52.0 °F 49% 30.01 in 10.0 mi Variable 3.5 mph - N/A   Scattered Clouds
8:56 AM 75.0 °F 52.0 °F 44% 30.00 in 10.0 mi Calm Calm - N/A   Scattered Clouds
10:56 AM 81.0 °F 50.0 °F 34% 29.99 in 10.0 mi Variable 3.5 mph - N/A   Scattered Clouds
11:56 AM 84.9 °F 48.0 °F 28% 29.96 in 10.0 mi SSE 6.9 mph - N/A   Mostly Cloudy
12:56 PM 87.1 °F 48.0 °F 26% 29.94 in 10.0 mi West 11.5 mph - N/A   Mostly Cloudy
1:56 PM 89.1 °F 46.9 °F 23% 29.92 in 10.0 mi Variable 3.5 mph - 0.00 in   Mostly Cloudy
2:56 PM 91.0 °F 42.1 °F 18% 29.88 in 10.0 mi WSW 9.2 mph 20.7 mph N/A   Mostly Cloudy
3:56 PM 93.0 °F 41.0 °F 16% 29.88 in 10.0 mi SW 15.0 mph 24.2 mph N/A   Mostly Cloudy
4:56 PM 91.9 °F 39.0 °F 16% 29.86 in 10.0 mi West 13.8 mph 29.9 mph N/A   Mostly Cloudy
5:56 PM 91.0 °F 39.0 °F 16% 29.86 in 10.0 mi WSW 16.1 mph - N/A   Mostly Cloudy
6:56 PM 86.0 °F 39.9 °F 20% 29.87 in 10.0 mi West 15.0 mph - N/A   Mostly Cloudy
7:56 PM 82.0 °F 39.9 °F 22% 29.89 in 10.0 mi WNW 11.5 mph - N/A   Mostly Cloudy
8:56 PM 77.0 °F 39.9 °F 26% 29.91 in 10.0 mi NE 5.8 mph - N/A   Mostly Cloudy
9:56 PM 77.0 °F 41.0 °F 28% 29.91 in 10.0 mi NNW 6.9 mph - N/A   Mostly Cloudy
10:56 PM 73.0 °F 42.1 °F 33% 29.92 in 10.0 mi NNW 5.8 mph - N/A   Mostly Cloudy
11:56 PM 69.1 °F 43.0 °F 39% 29.92 in 10.0 mi North 5.8 mph - N/A   Mostly Cloudy